Location: Unspecified
(0.0000°N, 0.0000°E)
Time: 02:43:42
(UTC+00:00)

STARLINK-1023 - Pass Details

Date: 16 January 2020
Orbit: 546 x 548 km, 53.1° (Epoch: 18 January)

Event Time Altitude Azimuth Distance (km) Brightness Sun altitude
Exits shadow 03:39:19 11° 80° (E) 1,724 6.7 -34.7°
Drops below altitude 10° 03:39:37 10° 77° (ENE) 1,806 6.8 -34.6°
Enters shadow 04:58:11 -29° 220° (SW) 7,160 9.2 -16.6°
Maximum altitude 05:15:58 20° 304° (NW) 1,272 4.9 -12.5°
